Regional Weather Roundup
Issued by NWS

Home | Current Version | Previous Version | Text Only | Print | Product List | Glossary Off
Versions: 1 2 3 4 5 6 7 8 9 10 11 12 13 14 15 16 17 18 19 20 21 22 23 24 25 26 27

000
ASUS45 KBOU 241107
RWRCO

WEATHER ROUNDUP FOR COLORADO
NATIONAL WEATHER SERVICE DENVER/BOULDER CO
500 AM MDT MON APR 24 2017

NOTE: "FAIR" INDICATES FEW OR NO CLOUDS BELOW 12000 FEET WITH NO
SIGNIFICANT WEATHER AND/OR OBSTRUCTIONS TO VISIBILITY.

COZ001>005-013-030-031-241200-
...NORTHWEST COLORADO...

CITY           SKY/WX    TMP DP  RH WIND       PRES   REMARKS
CRAIG          CLOUDY    41  37  86 SE3       29.84F
HAYDEN         CLOUDY    37  32  81 SW5       29.85R
MEEKER         MOCLDY    42  38  85 CALM      29.83S
MOUNT WERNER   NOT AVBL
STEAMBOAT SPGS CLOUDY    39  37  91 W14G21    29.84R
WALDEN           N/A     37  32  81 SW10      29.84F
$$

COZ006>008-011-241200-
...WEST CENTRAL VALLEYS...

CITY           SKY/WX    TMP DP  RH WIND       PRES   REMARKS
GRAND JUNCTION FAIR      49  32  52 NE8       29.77F
MONTROSE       FAIR      52  28  39 SW6       29.83S
EAGLE          FAIR      41  33  73 CALM      29.86R
RIFLE          MOCLDY    47  35  63 E5        29.81R
DELTA          FAIR      54  29  38 SW5       29.79F
NUCLA          FAIR      52  28  40 CALM      29.87F
$$

COZ017>023-064>068-241200-
...SOUTHWEST COLORADO...

CITY           SKY/WX    TMP DP  RH WIND       PRES   REMARKS
DURANGO        FAIR      34  21  59 NE6       29.88S WCI  29
CORTEZ         FAIR      39  26  59 NE8       29.85S
PAGOSA SPRINGS FAIR      39  22  51 NE3       29.93R
TELLURIDE      MOCLDY    44  22  41 CALM      29.97F
WOLF CREEK PAS FAIR      28  18  64 SW12G17   30.11R WCI  18
$$

COZ009-010-012-014-032>034-037-058>063-241200-
...CENTRAL COLORADO...

CITY           SKY/WX    TMP DP  RH WIND       PRES   REMARKS
ASPEN          CLOUDY    40  37  89 S5        29.85S
BUENA VISTA    FAIR      43  28  55 N6        29.83F
COPPER MTN     LGT SNOW  32  25  74 W29G38    29.95F VSB 1   WCI  18
BERTHOUD PASS  LGT SNOW  25  12  58 NW43G54   29.90F WCI   5
COTTONWOOD PAS FAIR      43  23  45 W25G39    29.86F
GUNNISON       FAIR      39  30  70 SE5       29.88S
KREMMLING      FAIR      43  37  81 SE7       29.84F
LEADVILLE      MOCLDY    32  27  81 CALM      29.89F
MONARCH PASS   CLOUDY    30  23  74 W38G46    30.08F WCI  14
SALIDA         FAIR      51  24  34 W9G17     29.88F
SUNLIGHT       CLOUDY    30  27  86 SW15G24   29.98S WCI  19
WILKERSON PASS MOCLDY    32  25  74 SW10G22   29.95F WCI  24
$$

COZ069>075-241200-
...SAN LUIS VALLEY/SANGRE DE CRISTO MOUNTAINS...

CITY           SKY/WX    TMP DP  RH WIND       PRES   REMARKS
ALAMOSA        FAIR      49  17  28 W10       29.85F
LA VETA PASS   FAIR      39  18  41 S28G45    30.03F
SAGUACHE       FAIR      41  23  48 NW8       29.86F
$$

COZ035-036-038>040-241200-
...NORTHERN COLORADO FRONT RANGE...

CITY           SKY/WX    TMP DP  RH WIND       PRES   REMARKS
DENVER INTL AP MOCLDY    48  37  65 E9        29.68S
DMNS CITY PARK   N/A     56  32  40 E7        29.67F
AURORA         MOCLDY    48  37  65 SE8       29.70S
FRONT RANGE AP CLOUDY    50  36  57 E8        29.69F
ERIE MUNI ARPT FAIR      55  32  41 S6        29.65F
BOULDER MUN AP FAIR      54  32  43 E7        29.63F
CENTENNIAL     MOCLDY    49  33  54 SE8       29.71S
BROOMFIELD     FAIR      54  32  43 CALM      29.69R
FORT COLLINS   FAIR      52  37  56 N14       29.66S
LONGMONT       FAIR      55  36  49 SE7       29.65F
$$

COZ041-046-047-076>085-087-088-241200-
...PIKES PEAK/PALMER DIVIDE AND SOUTHERN FOOTHILLS...

CITY           SKY/WX    TMP DP  RH WIND       PRES   REMARKS
COLO. SPRINGS  FAIR      49  27  42 NE12      29.71R
A. F. ACADEMY  FAIR      55  27  33 N14G24    29.72R
SCHRIEVER AFB  FAIR      54  25  32 NW14      29.73R
ELLICOTT       FAIR     N/A N/A N/A N7        29.71R
FALCON         FAIR      51  23  33 NW12G20   29.77R
FORT CARSON    FAIR      60  24  25 W15G23    29.69R
LIMON          FAIR      50  37  61 N18       29.68R
MONUMENT HILL  FAIR      43  27  52 NW5       29.78R
TRINIDAD       FAIR      49  27  42 W13       29.73S
$$

COZ042>045-048>051-090-091-241200-
...NORTHEAST COLORADO...

CITY           SKY/WX    TMP DP  RH WIND       PRES   REMARKS
GREELEY ARPT   FAIR      52  39  61 NW10      29.67R
AKRON          FAIR      50  37  61 NW18      29.63R
BURLINGTON     NOT AVBL
WRAY           NOT AVBL
STERLING       FAIR      54  41  62 N15       29.61R
HOLYOKE        FAIR      45  39  81 NW5       29.55F
FORT MORGAN    FAIR      52  37  54 N22G29    29.63S
$$

COZ086-089-092>099-241200-
...SOUTHEAST COLORADO...

CITY           SKY/WX    TMP DP  RH WIND       PRES   REMARKS
PUEBLO         FAIR      45  40  82 W6        29.65R
LA JUNTA       FAIR      58  35  42 SW16      29.61S
LAMAR          FAIR      57  36  45 SW20      29.55S
SPRINGFIELD      N/A     52  33  48 SW14G22   29.66F
$$




USA.gov is the U.S. government's official web portal to all federal, state and local government web resources and services.